{"data":{"norad_id":40119,"epoch":"2026-09-19T13:28:29.554752Z","epoch_age_seconds":95525,"freshness":"FRESH","line1":"1 40119U 14049B   26262.56145318  .00000789  00000+0  77727-4 0  9991","line2":"2 40119  97.9169  15.3445 0014499 151.5260 208.6756 14.94868370655546","mean_motion":14.9486837,"eccentricity":0.0014499,"inclination_deg":97.9169,"raan_deg":15.3445,"arg_perigee_deg":151.526,"mean_anomaly_deg":208.6756,"bstar":7.7727e-5,"rev_number":65554,"period_min":96.329551745081,"perigee_km":572.68871272336,"apogee_km":592.87398374957,"semimajor_km":6960.9183482365,"source":"CELESTRAK","updated_at":"2026-09-20T09:00:48.027892Z"}}